TimeCET,TemperatureF,Dew PointF,Humidity,Sea Level PressureIn,VisibilityMPH,Wind Direction,Wind SpeedMPH,Gust SpeedMPH,PrecipitationIn,Events,Conditions,WindDirDegrees,DateUTC
7:00 AM,48.2,44.6,87,29.86,1.9,Variable,1.2,-,N/A,Rain,Light Rain,0,2012-11-03 06:00:00
7:30 AM,48.2,44.6,87,29.86,2.5,East,4.6,-,N/A,Rain,Light Rain,100,2012-11-03 06:30:00
8:00 AM,48.2,44.6,87,29.83,1.9,Variable,2.3,-,N/A,Rain,Light Rain,0,2012-11-03 07:00:00
8:30 AM,48.2,44.6,87,29.83,1.9,Variable,2.3,-,N/A,Rain,Rain,0,2012-11-03 07:30:00
8:49 AM,48.2,44.6,87,29.86,3.1,East,3.5,-,N/A,Rain,Rain,80,2012-11-03 07:49:00
9:00 AM,48.2,44.6,87,29.86,3.7,Variable,2.3,-,N/A,Rain,Rain,0,2012-11-03 08:00:00
9:30 AM,50.0,44.6,82,29.86,5.0,Variable,2.3,-,N/A,Rain,Light Rain,0,2012-11-03 08:30:00
10:00 AM,50.0,44.6,82,29.86,6.2,Variable,2.3,-,N/A,,Overcast,0,2012-11-03 09:00:00
10:30 AM,50.0,44.6,82,29.86,5.6,Variable,1.2,-,N/A,,Overcast,0,2012-11-03 09:30:00
11:00 AM,50.0,44.6,82,29.86,5.0,Variable,1.2,-,N/A,Rain,Light Rain,0,2012-11-03 10:00:00
11:30 AM,50.0,46.4,87,29.86,3.7,Variable,1.2,-,N/A,Rain,Light Rain,0,2012-11-03 10:30:00
11:32 AM,50.0,46.4,87,29.86,1.6,Variable,2.3,-,N/A,Rain,Light Rain,0,2012-11-03 10:32:00
11:45 AM,51.8,46.4,82,29.86,3.7,Calm,Calm,-,N/A,,Light Drizzle,0,2012-11-03 10:45:00
12:00 PM,51.8,46.4,82,29.86,3.1,Variable,1.2,-,N/A,,Light Drizzle,0,2012-11-03 11:00:00
12:30 PM,51.8,46.4,82,29.83,3.1,Variable,1.2,-,N/A,,Light Drizzle,0,2012-11-03 11:30:00
1:00 PM,53.6,48.2,82,29.83,6.2,Variable,2.3,-,N/A,,Mostly Cloudy,0,2012-11-03 12:00:00
1:30 PM,53.6,46.4,77,29.83,6.2,Variable,1.2,-,N/A,,Mostly Cloudy,0,2012-11-03 12:30:00
2:00 PM,53.6,44.6,72,29.83,6.2,Calm,Calm,-,N/A,,Mostly Cloudy,0,2012-11-03 13:00:00
2:30 PM,53.6,44.6,72,29.83,6.2,Calm,Calm,-,N/A,,Mostly Cloudy,0,2012-11-03 13:30:00
3:00 PM,53.6,44.6,72,29.80,6.2,Calm,Calm,-,N/A,,Mostly Cloudy,0,2012-11-03 14:00:00
3:30 PM,55.4,44.6,67,29.80,6.2,Calm,Calm,-,N/A,,Mostly Cloudy,0,2012-11-03 14:30:00
4:00 PM,57.2,48.2,72,29.83,6.2,Calm,Calm,-,N/A,,Mostly Cloudy,0,2012-11-03 15:00:00
4:30 PM,55.4,46.4,72,29.83,6.2,SSW,3.5,-,N/A,,Mostly Cloudy,210,2012-11-03 15:30:00
5:00 PM,55.4,44.6,67,29.83,6.2,SSW,4.6,-,N/A,,Mostly Cloudy,200,2012-11-03 16:00:00
5:30 PM,55.4,46.4,72,29.83,6.2,South,4.6,-,N/A,,Mostly Cloudy,190,2012-11-03 16:30:00
6:00 PM,53.6,46.4,77,29.83,6.2,Variable,2.3,-,N/A,,Mostly Cloudy,0,2012-11-03 17:00:00
6:30 PM,53.6,46.4,77,29.83,6.2,Variable,2.3,-,N/A,,Mostly Cloudy,0,2012-11-03 17:30:00
7:00 PM,53.6,48.2,82,29.83,6.2,Calm,Calm,-,N/A,,Mostly Cloudy,0,2012-11-03 18:00:00
7:30 PM,53.6,48.2,82,29.83,6.2,Calm,Calm,-,N/A,,Mostly Cloudy,0,2012-11-03 18:30:00
8:00 PM,53.6,48.2,82,29.83,6.2,Calm,Calm,-,N/A,,Mostly Cloudy,0,2012-11-03 19:00:00
8:30 PM,53.6,48.2,82,29.83,6.2,Calm,Calm,-,N/A,,Overcast,0,2012-11-03 19:30:00
9:00 PM,53.6,48.2,82,29.83,1.9,Calm,Calm,-,N/A,,Overcast,0,2012-11-03 20:00:00
9:30 PM,53.6,48.2,82,29.83,1.2,Calm,Calm,-,N/A,,Overcast,0,2012-11-03 20:30:00
10:00 PM,53.6,50.0,88,29.83,1.2,Calm,Calm,-,N/A,,Light Drizzle,0,2012-11-03 21:00:00